Hourly Weather Bolshie Toronkovichi

Today, 1 August, Sunday

Time Temperature Precipitation Wind Pressure Humidity
00:00 +18°C° 0 mm 2 mps 734 mmHg 80%
01:00 +17°C° 0 mm 2 mps 734 mmHg 84%
02:00 +17°C° 0 mm 3 mps 734 mmHg 89%
03:00 +17°C° 0.2 mm 3 mps 734 mmHg 92%
04:00 +17°C° 0.2 mm 3 mps 733 mmHg 95%
05:00 +17°C° 0.2 mm 3 mps 733 mmHg 97%
06:00 +18°C° 0.2 mm 3 mps 734 mmHg 92%
07:00 +20°C° 0.2 mm 3 mps 734 mmHg 87%
08:00 +21°C° 0.2 mm 3 mps 734 mmHg 81%
09:00 +22°C° 0.2 mm 4 mps 734 mmHg 71%
10:00 +25°C° 0.2 mm 4 mps 735 mmHg 61%
11:00 +26°C° 0.2 mm 4 mps 735 mmHg 51%
12:00 +27°C° 0 mm 4 mps 735 mmHg 47%
13:00 +27°C° 0 mm 4 mps 735 mmHg 43%
14:00 +28°C° 0 mm 4 mps 735 mmHg 39%
15:00 +27°C° 0 mm 4 mps 735 mmHg 41%
16:00 +27°C° 0 mm 4 mps 735 mmHg 44%
17:00 +27°C° 0 mm 3 mps 735 mmHg 46%
18:00 +25°C° 0 mm 2 mps 735 mmHg 53%
19:00 +23°C° 0 mm 2 mps 735 mmHg 59%
20:00 +21°C° 0 mm 1 mps 734 mmHg 65%
21:00 +21°C° 0 mm 1 mps 734 mmHg 66%
22:00 +19°C° 0 mm 2 mps 734 mmHg 67%
23:00 +19°C° 0 mm 2 mps 734 mmHg 68%

Tomorrow, 2 August, Monday

Time Temperature Precipitation Wind Pressure Humidity
00:00 +18°C° 0.2 mm 2 mps 733 mmHg 74%
01:00 +18°C° 0.2 mm 2 mps 733 mmHg 81%
02:00 +17°C° 0.2 mm 2 mps 733 mmHg 88%
03:00 +17°C° 0.8 mm 2 mps 732 mmHg 91%
04:00 +17°C° 0.8 mm 2 mps 732 mmHg 94%
05:00 +17°C° 0.8 mm 2 mps 731 mmHg 97%
06:00 +18°C° 0.8 mm 2 mps 731 mmHg 96%
07:00 +18°C° 0.8 mm 3 mps 730 mmHg 96%
08:00 +18°C° 0.8 mm 4 mps 730 mmHg 95%
09:00 +20°C° 0 mm 4 mps 730 mmHg 86%
10:00 +22°C° 0 mm 5 mps 730 mmHg 77%
11:00 +24°C° 0 mm 6 mps 730 mmHg 67%
12:00 +23°C° 0.4 mm 6 mps 730 mmHg 70%
13:00 +23°C° 0.4 mm 6 mps 730 mmHg 72%
14:00 +22°C° 0.4 mm 6 mps 730 mmHg 75%
15:00 +21°C° 0.1 mm 6 mps 731 mmHg 77%
16:00 +19°C° 0.1 mm 5 mps 731 mmHg 80%
17:00 +17°C° 0.1 mm 5 mps 731 mmHg 83%
18:00 +17°C° 0 mm 4 mps 732 mmHg 85%
19:00 +17°C° 0 mm 3 mps 732 mmHg 87%
20:00 +16°C° 0 mm 3 mps 733 mmHg 89%
21:00 +16°C° 0 mm 3 mps 733 mmHg 89%
22:00 +16°C° 0 mm 3 mps 733 mmHg 89%
23:00 +16°C° 0 mm 3 mps 733 mmHg 89%

Day after tomorrow, 3 August, Tuesday

Time Temperature Precipitation Wind Pressure Humidity
00:00 +14°C° 0.1 mm 3 mps 734 mmHg 91%
01:00 +14°C° 0.1 mm 3 mps 734 mmHg 93%
02:00 +14°C° 0.1 mm 3 mps 734 mmHg 95%
03:00 +14°C° 0 mm 3 mps 734 mmHg 95%
04:00 +13°C° 0 mm 3 mps 734 mmHg 96%
05:00 +13°C° 0 mm 3 mps 735 mmHg 96%
06:00 +14°C° 0 mm 4 mps 735 mmHg 89%
07:00 +15°C° 0 mm 4 mps 735 mmHg 83%
08:00 +16°C° 0 mm 5 mps 736 mmHg 76%
09:00 +17°C° 0 mm 5 mps 736 mmHg 67%
10:00 +20°C° 0 mm 5 mps 736 mmHg 58%
11:00 +21°C° 0 mm 5 mps 736 mmHg 50%
12:00 +21°C° 0.1 mm 5 mps 736 mmHg 52%
13:00 +21°C° 0.1 mm 5 mps 736 mmHg 54%
14:00 +21°C° 0.1 mm 5 mps 736 mmHg 56%
15:00 +21°C° 0.2 mm 5 mps 736 mmHg 59%
16:00 +21°C° 0.2 mm 5 mps 737 mmHg 62%
17:00 +20°C° 0.2 mm 5 mps 737 mmHg 65%
18:00 +19°C° 0.1 mm 4 mps 737 mmHg 73%
19:00 +17°C° 0.1 mm 3 mps 737 mmHg 81%
20:00 +16°C° 0.1 mm 2 mps 738 mmHg 88%
21:00 +15°C° 0.1 mm 2 mps 738 mmHg 90%
22:00 +14°C° 0.1 mm 2 mps 738 mmHg 92%
23:00 +14°C° 0.1 mm 2 mps 738 mmHg 94%

4 August, Wednesday

Time Temperature Precipitation Wind Pressure Humidity
00:00 +13°C° 0 mm 2 mps 739 mmHg 94%
01:00 +13°C° 0 mm 2 mps 739 mmHg 94%
02:00 +12°C° 0 mm 1 mps 739 mmHg 93%
03:00 +12°C° 0 mm 1 mps 739 mmHg 92%
04:00 +12°C° 0 mm 1 mps 740 mmHg 91%
05:00 +12°C° 0 mm 1 mps 740 mmHg 90%
06:00 +13°C° 0 mm 1 mps 740 mmHg 83%
07:00 +14°C° 0 mm 0 mps 740 mmHg 76%
08:00 +16°C° 0 mm 0 mps 741 mmHg 69%
09:00 +17°C° 0 mm 0 mps 741 mmHg 61%
10:00 +21°C° 0 mm 1 mps 741 mmHg 53%
11:00 +23°C° 0 mm 1 mps 741 mmHg 45%
12:00 +23°C° 0 mm 1 mps 741 mmHg 44%
13:00 +24°C° 0 mm 1 mps 741 mmHg 42%
14:00 +24°C° 0 mm 1 mps 741 mmHg 41%
15:00 +23°C° 0 mm 1 mps 741 mmHg 46%
16:00 +22°C° 0 mm 1 mps 740 mmHg 52%
17:00 +21°C° 0 mm 1 mps 740 mmHg 58%
18:00 +21°C° 0 mm 1 mps 740 mmHg 60%
19:00 +20°C° 0 mm 1 mps 740 mmHg 62%
20:00 +17°C° 0 mm 0 mps 740 mmHg 64%
21:00 +18°C° 0 mm 1 mps 740 mmHg 66%
22:00 +18°C° 0 mm 1 mps 740 mmHg 68%
23:00 +16°C° 0 mm 1 mps 741 mmHg 70%

5 August, Thursday

Time Temperature Precipitation Wind Pressure Humidity
00:00 +16°C° 0 mm 1 mps 740 mmHg 71%
01:00 +16°C° 0 mm 1 mps 740 mmHg 72%
02:00 +15°C° 0 mm 2 mps 740 mmHg 73%
03:00 +15°C° 0 mm 1 mps 740 mmHg 73%
04:00 +15°C° 0 mm 1 mps 740 mmHg 74%
05:00 +15°C° 0 mm 1 mps 740 mmHg 74%
06:00 +16°C° 0 mm 1 mps 740 mmHg 70%
07:00 +19°C° 0 mm 1 mps 740 mmHg 65%
08:00 +20°C° 0 mm 1 mps 740 mmHg 61%
09:00 +21°C° 0 mm 2 mps 740 mmHg 57%
10:00 +23°C° 0 mm 2 mps 740 mmHg 52%
11:00 +24°C° 0 mm 3 mps 740 mmHg 47%
12:00 +25°C° 0 mm 3 mps 739 mmHg 47%
13:00 +25°C° 0 mm 3 mps 739 mmHg 47%
14:00 +26°C° 0 mm 3 mps 739 mmHg 46%
15:00 +25°C° 0 mm 3 mps 739 mmHg 52%
16:00 +24°C° 0 mm 3 mps 739 mmHg 57%
17:00 +22°C° 0 mm 3 mps 738 mmHg 63%
18:00 +21°C° 0.1 mm 3 mps 738 mmHg 71%
19:00 +19°C° 0.1 mm 3 mps 738 mmHg 78%
20:00 +18°C° 0.1 mm 3 mps 738 mmHg 86%
21:00 +17°C° 0 mm 3 mps 737 mmHg 87%
22:00 +17°C° 0 mm 4 mps 737 mmHg 87%
23:00 +15°C° 0 mm 4 mps 737 mmHg 88%

6 August, Friday

Time Temperature Precipitation Wind Pressure Humidity
00:00 +15°C° 0.2 mm 4 mps 736 mmHg 90%
01:00 +15°C° 0.2 mm 4 mps 736 mmHg 92%
02:00 +15°C° 0.2 mm 4 mps 736 mmHg 94%
03:00 +15°C° 0.4 mm 4 mps 735 mmHg 95%
04:00 +15°C° 0.4 mm 4 mps 735 mmHg 95%
05:00 +15°C° 0.4 mm 4 mps 735 mmHg 96%
06:00 +17°C° 0.8 mm 4 mps 734 mmHg 96%
07:00 +17°C° 0.8 mm 4 mps 734 mmHg 97%
08:00 +17°C° 0.8 mm 4 mps 734 mmHg 97%
09:00 +18°C° 0.5 mm 4 mps 734 mmHg 96%
10:00 +18°C° 0.5 mm 4 mps 734 mmHg 95%
11:00 +19°C° 0.5 mm 5 mps 734 mmHg 94%
12:00 +19°C° 0.8 mm 4 mps 734 mmHg 94%
13:00 +20°C° 0.8 mm 4 mps 734 mmHg 95%
14:00 +20°C° 0.8 mm 3 mps 734 mmHg 95%
15:00 +20°C° 0.3 mm 3 mps 734 mmHg 92%
16:00 +20°C° 0.3 mm 4 mps 734 mmHg 90%
17:00 +20°C° 0.3 mm 4 mps 734 mmHg 88%
18:00 +19°C° 0 mm 3 mps 735 mmHg 90%
19:00 +18°C° 0 mm 3 mps 735 mmHg 93%
20:00 +17°C° 0 mm 2 mps 736 mmHg 95%
21:00 +17°C° 0 mm 2 mps 736 mmHg 95%
22:00 +16°C° 0 mm 2 mps 736 mmHg 96%
23:00 +16°C° 0 mm 2 mps 736 mmHg 96%
Show more

We Need Your Consent

Meteoprog and our Service Providers may store and access personal data such as cookies, device identifiers or other similar technologies on your device and process such data to personalise content and ads, as well as provide social media features and to analyse the traffic.

  • Store and/or access information on your device

    Cookies, device identifiers or other information can be stored or accessed on your device for the purposes indicated above.

  • Personalised ads and content, ad and content measurement, audience insights, and products development

    Ads and content can be personalised based on a profile. More data can be added to better personalise ads and content. Ad and content performance can be measured. Insights about the audience who saw the ads and content can be derived. Such data can be used to develop or improve user’s experience, systems and software.

By clicking ‘I Agree’ you will allow the use of indicated cookies, device identifiers, web beacons or other similar technologies. Your settings can be changed in the browser on your device.

For certain purposes, legitimate interests may be relied on, rather than consent. You can read more about this in our Privacy and Cookie Policy.